This demonstration page uses our WeatherBlox Daily Observations layout. Learn more.

Left ArrowRight Arrow

Hourly Observations for November 12, 2020

Temp ( °F °C ) Dew Point ( °F °C ) Humidity (%) Winds ( mph kmh ) Pressure ( in mb ) Visibility ( mi km ) Precip ( " mm )
12:53 am 00:53 Clear 31 -0.6 29 -1.7 92 92 Calm 30.16 1021 8 13 0.00 0.00
1:53 am 01:53 Clear 33 0.6 30 -1.1 89 89 Calm 30.16 1022 10 16 0.00 0.00
2:53 am 02:53 Clear 30 -1.1 28 -2.2 92 92 Calm 30.17 1022 7 11 0.00 0.00
3:53 am 03:53 Clear 29 -1.7 27 -2.8 92 92 N 3 6 30.19 1022 7 11 0.00 0.00
4:53 am 04:53 Clear with Mist and Fog 30 -1.1 27 -2.8 88 88 Calm 30.18 1022 6 10 0.00 0.00
5:53 am 05:53 Clear with Mist and Fog 28 -2.2 26 -3.3 92 92 Calm 30.20 1023 4 6 0.00 0.00
6:53 am 06:53 Clear with Mist and Fog 29 -1.7 27 -2.8 92 92 Calm 30.21 1023 4 6 0.00 0.00
7:53 am 07:53 Sunny with Mist and Fog 30 -1.1 28 -2.2 92 92 Calm 30.22 1023 4 6 0.00 0.00
8:53 am 08:53 Sunny 38 3.3 33 0.6 83 83 NE 6 9 30.22 1023 7 11 0.00 0.00
9:53 am 09:53 Sunny 40 4.4 34 1.1 79 79 E 9 15 30.21 1023 10 16 0.00 0.00
10:53 am 10:53 Sunny 44 6.7 33 0.6 65 65 ENE 8 13 30.19 1022 10 16 0.00 0.00
11:53 am 11:53 Sunny 47 8.3 35 1.7 63 63 E 7 11 30.17 1022 10 16 0.00 0.00
12:53 pm 12:53 Sunny 50 10 35 1.7 57 57 Calm 30.14 1021 10 16 0.00 0.00
1:53 pm 13:53 Sunny 53 11.7 36 2.2 52 52 E 8 13 30.11 1020 10 16 0.00 0.00
2:53 pm 14:53 Sunny 53 11.7 34 1.1 48 48 Calm 30.10 1019 10 16 0.00 0.00
3:53 pm 15:53 Sunny 54 12.2 34 1.1 47 47 NE 5 7 30.09 1019 10 16 0.00 0.00
4:53 pm 16:53 Sunny 51 10.6 34 1.1 52 52 NNE 3 6 30.08 1019 10 16 0.00 0.00
5:53 pm 17:53 Clear 42 5.6 34 1.1 73 73 Calm 30.09 1019 10 16 0.00 0.00
6:53 pm 18:53 Clear 38 3.3 32 0 79 79 Calm 30.09 1019 10 16 0.00 0.00
7:53 pm 19:53 Clear 35 1.7 31 -0.6 85 85 Calm 30.10 1019 10 16 0.00 0.00
8:53 pm 20:53 Clear 33 0.6 30 -1.1 89 89 Calm 30.09 1019 10 16 0.00 0.00
9:53 pm 21:53 Clear 31 -0.6 29 -1.7 92 92 Calm 30.08 1019 10 16 0.00 0.00
10:53 pm 22:53 Clear 31 -0.6 28 -2.2 89 89 Calm 30.05 1018 10 16 0.00 0.00
11:53 pm 23:53 Clear 30 -1.1 28 -2.2 92 92 Calm 30.04 1017 8 13 0.00 0.00

Powered by AerisWeather